"Sample Date","Sample Time","Sample Value","Units","Flow Rate","Sample Interval","Number Channels","Micron Size 0","Counts/Channel 0","Micron Size 1","Counts/Channel 1","Micron Size 2","Counts/Channel 2","Micron Size 3","Counts/Channel 3","Micron Size 4","Counts/Channel 4","Micron Size 5","Counts/Channel 5","Micron Size 6","Counts/Channel 6","Micron Size 7","Counts/Channel 7","Micron Size 8","Counts/Channel 8","Micron Size 9","Counts/Channel 9","Micron Size 10","Counts/Channel 10","Micron Size 11","Counts/Channel 11","Micron Size 12","Counts/Channel 12","Micron Size 13","Counts/Channel 13","Micron Size 14","Counts/Channel 14","Micron Size 15","Counts/Channel 15","Micron Size 16","Counts/Channel 16","Micron Size 17","Counts/Channel 17","Micron Size 18","Counts/Channel 18","Micron Size 19","Counts/Channel 19","Micron Size 20","Counts/Channel 20","Micron Size 21","Counts/Channel 21","Micron Size 22","Counts/Channel 22","Micron Size 23","Counts/Channel 23","Micron Size 24","Counts/Channel 24","Micron Size 25","Counts/Channel 25","Micron Size 26","Counts/Channel 26","Micron Size 27","Counts/Channel 27","Micron Size 28","Counts/Channel 28","Micron Size 29","Counts/Channel 29","Micron Size 30","Counts/Channel 30","Micron Size 31","Counts/Channel 31"
"03/07/08","02:00:03",8746.000,"cc",28298.813,6.00,6,0.100,7759.000,0.200,638.000,0.300,270.000,0.500,76.000,1.000,3.000,5.000,0
"03/07/08","02:00:09",8842.000,"cc",28260.508,6.00,6,0.100,7842.000,0.200,669.000,0.300,272.000,0.500,57.000,1.000,2.000,5.000,0
"03/07/08","02:00:15",8861.000,"cc",28312.910,6.00,6,0.100,7868.000,0.200,640.000,0.300,287.000,0.500,63.000,1.000,3.000,5.000,0
"03/07/08","02:00:21",8907.000,"cc",28342.479,6.00,6,0.100,7852.000,0.200,698.000,0.300,295.000,0.500,59.000,1.000,3.000,5.000,0
"03/07/08","02:00:27",8859.000,"cc",28291.648,6.00,6,0.100,7886.000,0.200,649.000,0.300,255.000,0.500,66.000,1.000,3.000,5.000,0
"03/07/08","02:00:33",8924.000,"cc",28339.586,6.00,6,0.100,7957.000,0.200,626.000,0.300,254.000,0.500,83.000,1.000,4.000,5.000,0
"03/07/08","02:00:39",8537.000,"cc",28354.311,6.00,6,0.100,7628.000,0.200,623.000,0.300,219.000,0.500,62.000,1.000,5.000,5.000,0
"03/07/08","02:00:45",8847.000,"cc",28350.592,6.00,6,0.100,7885.000,0.200,656.000,0.300,232.000,0.500,72.000,1.000,2.000,5.000,0
"03/07/08","02:00:51",8830.000,"cc",28268.678,6.00,6,0.100,7873.000,0.200,599.000,0.300,272.000,0.500,85.000,1.000,1.000,5.000,0
"03/07/08","02:00:57",8909.000,"cc",28332.373,6.00,6,0.100,7800.000,0.200,676.000,0.300,305.000,0.500,120.000,1.000,8.000,5.000,0
"03/07/08","02:01:03",8768.000,"cc",28348.125,6.00,6,0.100,7809.000,0.200,593.000,0.300,252.000,0.500,108.000,1.000,6.000,5.000,0
"03/07/08","02:01:09",8874.000,"cc",28273.994,6.00,6,0.100,7906.000,0.200,636.000,0.300,239.000,0.500,87.000,1.000,6.000,5.000,0
"03/07/08","02:01:15",9187.000,"cc",28347.203,6.00,6,0.100,8087.000,0.200,689.000,0.300,290.000,0.500,118.000,1.000,3.000,5.000,0
"03/07/08","02:01:21",9306.000,"cc",28416.070,6.00,6,0.100,8164.000,0.200,705.000,0.300,334.000,0.500,98.000,1.000,5.000,5.000,0
"03/07/08","02:01:27",9242.000,"cc",28250.096,6.00,6,0.100,8199.000,0.200,672.000,0.300,294.000,0.500,75.000,1.000,2.000,5.000,0
"03/07/08","02:01:33",9086.000,"cc",28256.512,6.00,6,0.100,8037.000,0.200,687.000,0.300,277.000,0.500,82.000,1.000,3.000,5.000,0
"03/07/08","02:01:39",9194.000,"cc",28300.662,6.00,6,0.100,8147.000,0.200,656.000,0.300,282.000,0.500,103.000,1.000,6.000,5.000,0
"03/07/08","02:01:45",9018.000,"cc",28332.264,6.00,6,0.100,7938.000,0.200,699.000,0.300,285.000,0.500,93.000,1.000,3.000,5.000,0
"03/07/08","02:01:51",9067.000,"cc",28317.920,6.00,6,0.100,8123.000,0.200,647.000,0.300,231.000,0.500,64.000,1.000,2.000,5.000,0
"03/07/08","02:01:57",9209.000,"cc",28293.231,6.00,6,0.100,8113.000,0.200,735.000,0.300,270.000,0.500,84.000,1.000,7.000,5.000,0
"03/07/08","02:02:03",8782.000,"cc",28354.496,6.00,6,0.100,7834.000,0.200,565.000,0.300,296.000,0.500,83.000,1.000,4.000,5.000,0
"03/07/08","02:02:09",8591.000,"cc",28350.408,6.00,6,0.100,7602.000,0.200,626.000,0.300,272.000,0.500,88.000,1.000,3.000,5.000,0
"03/07/08","02:02:15",8802.000,"cc",28244.311,6.00,6,0.100,7807.000,0.200,672.000,0.300,241.000,0.500,78.000,1.000,4.000,5.000,0
"03/07/08","02:02:21",8962.000,"cc",28282.943,6.00,6,0.100,7970.000,0.200,635.000,0.300,281.000,0.500,73.000,1.000,3.000,5.000,0
"03/07/08","02:02:27",9143.000,"cc",28279.803,6.00,6,0.100,8128.000,0.200,656.000,0.300,265.000,0.500,85.000,1.000,9.000,5.000,0
"03/07/08","02:02:33",9444.000,"cc",28434.801,6.00,6,0.100,8302.000,0.200,724.000,0.300,306.000,0.500,107.000,1.000,5.000,5.000,0
"03/07/08","02:02:39",9334.000,"cc",28347.908,6.00,6,0.100,8255.000,0.200,715.000,0.300,261.000,0.500,95.000,1.000,8.000,5.000,0
"03/07/08","02:02:45",9204.000,"cc",28307.672,6.00,6,0.100,8111.000,0.200,716.000,0.300,280.000,0.500,91.000,1.000,6.000,5.000,0
"03/07/08","02:02:51",9209.000,"cc",28337.787,6.00,6,0.100,8197.000,0.200,664.000,0.300,278.000,0.500,69.000,1.000,1.000,5.000,0
"03/07/08","02:02:57",9264.000,"cc",28360.440,6.00,6,0.100,8205.000,0.200,673.000,0.300,309.000,0.500,72.000,1.000,5.000,5.000,0
"03/07/08","02:03:03",9321.000,"cc",28339.195,6.00,6,0.100,8261.000,0.200,710.000,0.300,261.000,0.500,84.000,1.000,5.000,5.000,0
"03/07/08","02:03:09",9254.000,"cc",28382.643,6.00,6,0.100,8188.000,0.200,693.000,0.300,283.000,0.500,84.000,1.000,6.000,5.000,0
"03/07/08","02:03:15",8945.000,"cc",28286.664,6.00,6,0.100,7949.000,0.200,619.000,0.300,276.000,0.500,95.000,1.000,6.000,5.000,0
"03/07/08","02:03:21",9357.000,"cc",28289.080,6.00,6,0.100,8259.000,0.200,705.000,0.300,281.000,0.500,105.000,1.000,7.000,5.000,0
"03/07/08","02:03:27",9397.000,"cc",28291.746,6.00,6,0.100,8322.000,0.200,680.000,0.300,296.000,0.500,92.000,1.000,7.000,5.000,0
"03/07/08","02:03:33",9447.000,"cc",28363.143,6.00,6,0.100,8390.000,0.200,694.000,0.300,280.000,0.500,81.000,1.000,2.000,5.000,0
"03/07/08","02:03:39",9090.000,"cc",28365.092,6.00,6,0.100,8032.000,0.200,651.000,0.300,315.000,0.500,91.000,1.000,1.000,5.000,0
"03/07/08","02:03:45",9256.000,"cc",28264.516,6.00,6,0.100,8186.000,0.200,671.000,0.300,292.000,0.500,105.000,1.000,2.000,5.000,0
"03/07/08","02:03:51",9566.000,"cc",28333.080,6.00,6,0.100,8349.000,0.200,741.000,0.300,347.000,0.500,122.000,1.000,7.000,5.000,0
"03/07/08","02:03:57",9760.000,"cc",28287.025,6.00,6,0.100,8499.000,0.200,753.000,0.300,363.000,0.500,138.000,1.000,7.000,5.000,0
"03/07/08","02:04:03",9628.000,"cc",28267.973,6.00,6,0.100,8472.000,0.200,694.000,0.300,330.000,0.500,127.000,1.000,5.000,5.000,0
"03/07/08","02:04:09",9615.000,"cc",28332.959,6.00,6,0.100,8396.000,0.200,727.000,0.300,338.000,0.500,142.000,1.000,12.000,5.000,0
"03/07/08","02:04:15",9970.000,"cc",28329.596,6.00,6,0.100,8691.000,0.200,762.000,0.300,363.000,0.500,145.000,1.000,9.000,5.000,0
"03/07/08","02:04:21",9585.000,"cc",28382.701,6.00,6,0.100,8339.000,0.200,728.000,0.300,382.000,0.500,127.000,1.000,9.000,5.000,0
"03/07/08","02:04:27",9732.000,"cc",28385.522,6.00,6,0.100,8508.000,0.200,704.000,0.300,357.000,0.500,151.000,1.000,12.000,5.000,0
"03/07/08","02:04:33",9633.000,"cc",28306.074,6.00,6,0.100,8393.000,0.200,719.000,0.300,356.000,0.500,153.000,1.000,12.000,5.000,0
"03/07/08","02:04:38",9773.000,"cc",28205.473,6.00,6,0.100,8384.000,0.200,763.000,0.300,398.000,0.500,206.000,1.000,22.000,5.000,0
"03/07/08","02:04:44",10180.000,"cc",28289.361,6.00,6,0.100,8735.000,0.200,842.000,0.300,383.000,0.500,195.000,1.000,25.000,5.000,0
"03/07/08","02:04:50",10511.000,"cc",28272.387,6.00,6,0.100,8944.000,0.200,873.000,0.300,466.000,0.500,206.000,1.000,22.000,5.000,0
"03/07/08","02:04:56",9986.000,"cc",28182.158,6.00,6,0.100,8603.000,0.200,772.000,0.300,404.000,0.500,199.000,1.000,8.000,5.000,0
"03/07/08","02:05:02",9894.000,"cc",28305.272,6.00,6,0.100,8510.000,0.200,776.000,0.300,415.000,0.500,183.000,1.000,10.000,5.000,0
"03/07/08","02:05:08",10160.000,"cc",28327.207,6.00,6,0.100,8672.000,0.200,850.000,0.300,434.000,0.500,193.000,1.000,11.000,5.000,0
"03/07/08","02:05:14",10069.000,"cc",28329.111,6.00,6,0.100,8647.000,0.200,784.000,0.300,435.000,0.500,182.000,1.000,21.000,5.000,0
"03/07/08","02:05:20",9928.000,"cc",28270.287,6.00,6,0.100,8553.000,0.200,803.000,0.300,397.000,0.500,170.000,1.000,5.000,5.000,0
"03/07/08","02:05:26",10596.000,"cc",28335.699,6.00,6,0.100,9227.000,0.200,817.000,0.300,370.000,0.500,163.000,1.000,19.000,5.000,0
"03/07/08","02:05:32",10553.000,"cc",28284.215,6.00,6,0.100,8854.000,0.200,915.000,0.300,495.000,0.500,262.000,1.000,27.000,5.000,0
"03/07/08","02:05:38",10056.000,"cc",28319.574,6.00,6,0.100,8656.000,0.200,817.000,0.300,368.000,0.500,202.000,1.000,13.000,5.000,0
"03/07/08","02:05:44",10556.000,"cc",28325.770,6.00,6,0.100,9065.000,0.200,833.000,0.300,443.000,0.500,201.000,1.000,14.000,5.000,0
"03/07/08","02:05:50",10618.000,"cc",28338.291,6.00,6,0.100,8961.000,0.200,899.000,0.300,504.000,0.500,232.000,1.000,22.000,5.000,0
"03/07/08","02:05:56",10277.000,"cc",28297.988,6.00,6,0.100,8794.000,0.200,811.000,0.300,444.000,0.500,211.000,1.000,17.000,5.000,0
"03/07/08","02:06:02",9926.000,"cc",28292.188,6.00,6,0.100,8519.000,0.200,785.000,0.300,410.000,0.500,193.000,1.000,19.000,5.000,0
"03/07/08","02:06:08",11297.000,"cc",28298.018,6.00,6,0.100,9817.000,0.200,861.000,0.300,400.000,0.500,207.000,1.000,12.000,5.000,0
"03/07/08","02:06:14",10284.000,"cc",28365.574,6.00,6,0.100,8823.000,0.200,798.000,0.300,456.000,0.500,198.000,1.000,9.000,5.000,0
"03/07/08","02:06:20",10946.000,"cc",28293.697,6.00,6,0.100,9069.000,0.200,1001.000,0.300,560.000,0.500,286.000,1.000,30.000,5.000,0
"03/07/08","02:06:26",10998.000,"cc",28347.662,6.00,6,0.100,9074.000,0.200,1010.000,0.300,571.000,0.500,306.000,1.000,37.000,5.000,0
"03/07/08","02:06:32",10235.000,"cc",28291.033,6.00,6,0.100,8773.000,0.200,785.000,0.300,429.000,0.500,233.000,1.000,15.000,5.000,0
"03/07/08","02:06:38",10529.000,"cc",28344.352,6.00,6,0.100,8979.000,0.200,870.000,0.300,439.000,0.500,214.000,1.000,27.000,5.000,0
"03/07/08","02:06:44",10506.000,"cc",28342.787,6.00,6,0.100,8954.000,0.200,854.000,0.300,469.000,0.500,214.000,1.000,15.000,5.000,0
"03/07/08","02:06:50",10180.000,"cc",28337.926,6.00,6,0.100,8742.000,0.200,775.000,0.300,418.000,0.500,222.000,1.000,23.000,5.000,0
"03/07/08","02:06:56",9919.000,"cc",28291.578,6.00,6,0.100,8576.000,0.200,744.000,0.300,386.000,0.500,196.000,1.000,17.000,5.000,0
"03/07/08","02:07:02",10279.000,"cc",28324.736,6.00,6,0.100,8857.000,0.200,799.000,0.300,411.000,0.500,199.000,1.000,13.000,5.000,0
"03/07/08","02:07:08",10404.000,"cc",28352.779,6.00,6,0.100,8962.000,0.200,815.000,0.300,397.000,0.500,214.000,1.000,16.000,5.000,0
"03/07/08","02:07:14",10709.000,"cc",28345.594,6.00,6,0.100,9241.000,0.200,830.000,0.300,406.000,0.500,216.000,1.000,16.000,5.000,0
"03/07/08","02:07:20",10592.000,"cc",28270.791,6.00,6,0.100,9044.000,0.200,870.000,0.300,439.000,0.500,223.000,1.000,16.000,5.000,0
"03/07/08","02:07:26",10349.000,"cc",28293.365,6.00,6,0.100,8916.000,0.200,796.000,0.300,413.000,0.500,206.000,1.000,18.000,5.000,0
"03/07/08","02:07:32",10549.000,"cc",28325.738,6.00,6,0.100,8950.000,0.200,857.000,0.300,483.000,0.500,242.000,1.000,17.000,5.000,0
"03/07/08","02:07:38",10296.000,"cc",28321.654,6.00,6,0.100,8783.000,0.200,826.000,0.300,416.000,0.500,242.000,1.000,29.000,5.000,0
"03/07/08","02:07:44",10377.000,"cc",28322.557,6.00,6,0.100,8963.000,0.200,771.000,0.300,402.000,0.500,216.000,1.000,25.000,5.000,0
"03/07/08","02:07:50",10611.000,"cc",28316.523,6.00,6,0.100,9118.000,0.200,784.000,0.300,438.000,0.500,246.000,1.000,25.000,5.000,0
"03/07/08","02:07:56",10559.000,"cc",28269.512,6.00,6,0.100,9117.000,0.200,788.000,0.300,430.000,0.500,202.000,1.000,22.000,5.000,0
"03/07/08","02:08:02",10543.000,"cc",28397.232,6.00,6,0.100,9012.000,0.200,889.000,0.300,438.000,0.500,185.000,1.000,19.000,5.000,0
"03/07/08","02:08:08",10378.000,"cc",28233.885,6.00,6,0.100,9009.000,0.200,775.000,0.300,380.000,0.500,194.000,1.000,20.000,5.000,0
"03/07/08","02:08:14",10631.000,"cc",28336.111,6.00,6,0.100,9195.000,0.200,831.000,0.300,386.000,0.500,205.000,1.000,14.000,5.000,0
"03/07/08","02:08:20",10539.000,"cc",28270.160,6.00,6,0.100,9139.000,0.200,829.000,0.300,355.000,0.500,201.000,1.000,15.000,5.000,0
"03/07/08","02:08:26",10482.000,"cc",28292.361,6.00,6,0.100,9038.000,0.200,814.000,0.300,408.000,0.500,204.000,1.000,18.000,5.000,0
"03/07/08","02:08:32",10653.000,"cc",28329.522,6.00,6,0.100,9204.000,0.200,770.000,0.300,447.000,0.500,211.000,1.000,21.000,5.000,0
"03/07/08","02:08:38",10521.000,"cc",28361.990,6.00,6,0.100,9009.000,0.200,828.000,0.300,437.000,0.500,228.000,1.000,19.000,5.000,0
"03/07/08","02:08:44",10555.000,"cc",28298.416,6.00,6,0.100,8996.000,0.200,864.000,0.300,445.000,0.500,221.000,1.000,29.000,5.000,0
"03/07/08","02:08:50",10641.000,"cc",28380.662,6.00,6,0.100,9217.000,0.200,815.000,0.300,408.000,0.500,188.000,1.000,13.000,5.000,0
"03/07/08","02:08:56",10417.000,"cc",28369.559,6.00,6,0.100,8996.000,0.200,776.000,0.300,423.000,0.500,204.000,1.000,18.000,5.000,0
"03/07/08","02:09:02",10654.000,"cc",28295.742,6.00,6,0.100,9254.000,0.200,773.000,0.300,411.000,0.500,205.000,1.000,11.000,5.000,0
"03/07/08","02:09:08",10990.000,"cc",28278.227,6.00,6,0.100,9511.000,0.200,852.000,0.300,421.000,0.500,187.000,1.000,19.000,5.000,0
"03/07/08","02:09:14",10967.000,"cc",28263.686,6.00,6,0.100,9434.000,0.200,860.000,0.300,434.000,0.500,219.000,1.000,20.000,5.000,0
"03/07/08","02:09:20",10530.000,"cc",28347.457,6.00,6,0.100,9137.000,0.200,794.000,0.300,394.000,0.500,185.000,1.000,20.000,5.000,0
"03/07/08","02:09:26",11556.000,"cc",28350.707,6.00,6,0.100,9943.000,0.200,884.000,0.300,456.000,0.500,254.000,1.000,19.000,5.000,0
"03/07/08","02:09:32",10924.000,"cc",28337.377,6.00,6,0.100,9467.000,0.200,831.000,0.300,405.000,0.500,199.000,1.000,22.000,5.000,0
"03/07/08","02:09:38",10291.000,"cc",28281.078,6.00,6,0.100,8949.000,0.200,761.000,0.300,383.000,0.500,183.000,1.000,15.000,5.000,0
"03/07/08","02:09:44",10553.000,"cc",28273.871,6.00,6,0.100,9221.000,0.200,773.000,0.300,366.000,0.500,180.000,1.000,13.000,5.000,0
"03/07/08","02:09:50",10842.000,"cc",28335.631,6.00,6,0.100,9382.000,0.200,806.000,0.300,411.000,0.500,222.000,1.000,21.000,5.000,0
"03/07/08","02:09:56",10405.000,"cc",28338.641,6.00,6,0.100,9110.000,0.200,724.000,0.300,376.000,0.500,176.000,1.000,19.000,5.000,0
"03/07/08","02:10:02",10740.000,"cc",28344.352,6.00,6,0.100,9348.000,0.200,826.000,0.300,374.000,0.500,174.000,1.000,18.000,5.000,0
"03/07/08","02:10:08",12254.000,"cc",28241.377,6.00,6,0.100,10669.000,0.200,971.000,0.300,379.000,0.500,208.000,1.000,27.000,5.000,0
"03/07/08","02:10:14",10720.000,"cc",28339.148,6.00,6,0.100,9314.000,0.200,789.000,0.300,387.000,0.500,203.000,1.000,27.000,5.000,0
"03/07/08","02:10:20",10717.000,"cc",28338.428,6.00,6,0.100,9332.000,0.200,782.000,0.300,405.000,0.500,185.000,1.000,13.000,5.000,0
"03/07/08","02:10:26",10759.000,"cc",28319.697,6.00,6,0.100,9333.000,0.200,816.000,0.300,417.000,0.500,182.000,1.000,11.000,5.000,0
"03/07/08","02:10:32",10788.000,"cc",28350.106,6.00,6,0.100,9330.000,0.200,807.000,0.300,432.000,0.500,205.000,1.000,14.000,5.000,0
"03/07/08","02:10:38",10514.000,"cc",28308.373,6.00,6,0.100,9120.000,0.200,770.000,0.300,417.000,0.500,190.000,1.000,17.000,5.000,0
"03/07/08","02:10:44",11743.000,"cc",28356.287,6.00,6,0.100,10259.000,0.200,916.000,0.300,377.000,0.500,177.000,1.000,14.000,5.000,0
"03/07/08","02:10:50",11392.000,"cc",28286.625,6.00,6,0.100,9864.000,0.200,861.000,0.300,442.000,0.500,208.000,1.000,17.000,5.000,0
"03/07/08","02:10:56",10803.000,"cc",28303.857,6.00,6,0.100,9346.000,0.200,777.000,0.300,461.000,0.500,205.000,1.000,14.000,5.000,0
"03/07/08","02:11:02",10767.000,"cc",28279.537,6.00,6,0.100,9411.000,0.200,756.000,0.300,371.000,0.500,211.000,1.000,18.000,5.000,0
"03/07/08","02:11:08",11410.000,"cc",28347.400,6.00,6,0.100,9863.000,0.200,907.000,0.300,393.000,0.500,226.000,1.000,21.000,5.000,0
"03/07/08","02:11:14",11371.000,"cc",28316.856,6.00,6,0.100,9757.000,0.200,893.000,0.300,435.000,0.500,256.000,1.000,30.000,5.000,0
"03/07/08","02:11:20",10981.000,"cc",28301.504,6.00,6,0.100,9422.000,0.200,863.000,0.300,441.000,0.500,227.000,1.000,28.000,5.000,0
"03/07/08","02:11:26",11327.000,"cc",28306.732,6.00,6,0.100,9613.000,0.200,949.000,0.300,461.000,0.500,274.000,1.000,30.000,5.000,0
"03/07/08","02:11:32",11101.000,"cc",28285.934,6.00,6,0.100,9448.000,0.200,870.000,0.300,511.000,0.500,256.000,1.000,16.000,5.000,0
"03/07/08","02:11:38",11222.000,"cc",28351.940,6.00,6,0.100,9702.000,0.200,880.000,0.300,416.000,0.500,209.000,1.000,15.000,5.000,0
"03/07/08","02:11:44",11227.000,"cc",28343.467,6.00,6,0.100,9675.000,0.200,903.000,0.300,442.000,0.500,189.000,1.000,18.000,5.000,0
"03/07/08","02:11:50",11265.000,"cc",28331.127,6.00,6,0.100,9639.000,0.200,873.000,0.300,481.000,0.500,256.000,1.000,16.000,5.000,0
"03/07/08","02:11:56",11094.000,"cc",28275.818,6.00,6,0.100,9584.000,0.200,866.000,0.300,442.000,0.500,186.000,1.000,16.000,5.000,0
"03/07/08","02:12:02",10604.000,"cc",28300.102,6.00,6,0.100,9196.000,0.200,771.000,0.300,428.000,0.500,197.000,1.000,12.000,5.000,0
"03/07/08","02:12:08",11171.000,"cc",28310.213,6.00,6,0.100,9476.000,0.200,920.000,0.300,486.000,0.500,269.000,1.000,20.000,5.000,0
"03/07/08","02:12:14",11534.000,"cc",28356.934,6.00,6,0.100,9697.000,0.200,947.000,0.300,556.000,0.500,300.000,1.000,34.000,5.000,0
"03/07/08","02:12:20",10740.000,"cc",28411.609,6.00,6,0.100,9149.000,0.200,931.000,0.300,433.000,0.500,214.000,1.000,13.000,5.000,0
"03/07/08","02:12:26",10951.000,"cc",28274.096,6.00,6,0.100,9346.000,0.200,872.000,0.300,439.000,0.500,267.000,1.000,27.000,5.000,0
"03/07/08","02:12:32",11259.000,"cc",28225.494,6.00,6,0.100,9580.000,0.200,885.000,0.300,492.000,0.500,265.000,1.000,37.000,5.000,0
"03/07/08","02:12:38",12034.000,"cc",28384.256,6.00,6,0.100,9945.000,0.200,1098.000,0.300,625.000,0.500,330.000,1.000,36.000,5.000,0
"03/07/08","02:12:44",11002.000,"cc",28457.662,6.00,6,0.100,9557.000,0.200,822.000,0.300,389.000,0.500,209.000,1.000,25.000,5.000,0
"03/07/08","02:12:50",10796.000,"cc",28314.385,6.00,6,0.100,9347.000,0.200,793.000,0.300,434.000,0.500,204.000,1.000,18.000,5.000,0
"03/07/08","02:12:56",10719.000,"cc",28201.918,6.00,6,0.100,9278.000,0.200,765.000,0.300,423.000,0.500,236.000,1.000,17.000,5.000,0
"03/07/08","02:13:02",10696.000,"cc",28378.570,6.00,6,0.100,9198.000,0.200,806.000,0.300,438.000,0.500,227.000,1.000,27.000,5.000,0
"03/07/08","02:13:08",10543.000,"cc",28409.141,6.00,6,0.100,9121.000,0.200,782.000,0.300,405.000,0.500,209.000,1.000,26.000,5.000,0
"03/07/08","02:13:14",11229.000,"cc",28225.797,6.00,6,0.100,9552.000,0.200,875.000,0.300,524.000,0.500,250.000,1.000,28.000,5.000,0
"03/07/08","02:13:20",10904.000,"cc",28310.551,6.00,6,0.100,9349.000,0.200,865.000,0.300,438.000,0.500,222.000,1.000,30.000,5.000,0
"03/07/08","02:13:26",11059.000,"cc",28288.369,6.00,6,0.100,9496.000,0.200,830.000,0.300,449.000,0.500,254.000,1.000,30.000,5.000,0
"03/07/08","02:13:32",10516.000,"cc",28378.287,6.00,6,0.100,9147.000,0.200,759.000,0.300,400.000,0.500,191.000,1.000,19.000,5.000,0
"03/07/08","02:13:38",10776.000,"cc",28356.961,6.00,6,0.100,9313.000,0.200,776.000,0.300,434.000,0.500,228.000,1.000,25.000,5.000,0
"03/07/08","02:13:44",12301.000,"cc",28295.662,6.00,6,0.100,10082.000,0.200,1145.000,0.300,671.000,0.500,355.000,1.000,48.000,5.000,0
"03/07/08","02:13:50",11649.000,"cc",28347.047,6.00,6,0.100,9829.000,0.200,927.000,0.300,573.000,0.500,284.000,1.000,36.000,5.000,0
"03/07/08","02:13:56",11128.000,"cc",28337.305,6.00,6,0.100,9576.000,0.200,857.000,0.300,432.000,0.500,239.000,1.000,24.000,5.000,0
"03/07/08","02:14:02",11277.000,"cc",28336.621,6.00,6,0.100,9653.000,0.200,877.000,0.300,479.000,0.500,239.000,1.000,29.000,5.000,0
"03/07/08","02:14:08",11248.000,"cc",28365.289,6.00,6,0.100,9765.000,0.200,800.000,0.300,451.000,0.500,214.000,1.000,18.000,5.000,0
"03/07/08","02:14:14",10892.000,"cc",28281.932,6.00,6,0.100,9463.000,0.200,790.000,0.300,410.000,0.500,206.000,1.000,23.000,5.000,0
"03/07/08","02:14:20",11446.000,"cc",28246.080,6.00,6,0.100,9797.000,0.200,870.000,0.300,482.000,0.500,275.000,1.000,22.000,5.000,0
"03/07/08","02:14:26",11719.000,"cc",28249.508,6.00,6,0.100,9825.000,0.200,945.000,0.300,566.000,0.500,343.000,1.000,40.000,5.000,0
"03/07/08","02:14:32",11543.000,"cc",28341.168,6.00,6,0.100,9824.000,0.200,930.000,0.300,492.000,0.500,261.000,1.000,36.000,5.000,0
"03/07/08","02:14:38",11447.000,"cc",28358.721,6.00,6,0.100,9817.000,0.200,874.000,0.300,469.000,0.500,254.000,1.000,33.000,5.000,0
"03/07/08","02:14:44",11125.000,"cc",28353.598,6.00,6,0.100,9606.000,0.200,841.000,0.300,442.000,0.500,210.000,1.000,26.000,5.000,0
"03/07/08","02:14:50",11309.000,"cc",28314.469,6.00,6,0.100,9679.000,0.200,859.000,0.300,467.000,0.500,275.000,1.000,29.000,5.000,0
"03/07/08","02:14:56",11634.000,"cc",28260.186,6.00,6,0.100,9997.000,0.200,921.000,0.300,447.000,0.500,240.000,1.000,29.000,5.000,0
"03/07/08","02:15:02",11998.000,"cc",28263.387,6.00,6,0.100,10198.000,0.200,942.000,0.300,551.000,0.500,279.000,1.000,28.000,5.000,0
"03/07/08","02:15:08",11120.000,"cc",28384.082,6.00,6,0.100,9594.000,0.200,812.000,0.300,420.000,0.500,263.000,1.000,31.000,5.000,0
"03/07/08","02:15:14",11056.000,"cc",28278.096,6.00,6,0.100,9525.000,0.200,822.000,0.300,439.000,0.500,242.000,1.000,27.000,5.000,1.000
"03/07/08","02:15:20",11474.000,"cc",28341.186,6.00,6,0.100,9851.000,0.200,865.000,0.300,476.000,0.500,252.000,1.000,30.000,5.000,0
"03/07/08","02:15:26",10658.000,"cc",28309.990,6.00,6,0.100,9345.000,0.200,728.000,0.300,389.000,0.500,183.000,1.000,13.000,5.000,0
"03/07/08","02:15:32",10892.000,"cc",28278.525,6.00,6,0.100,9470.000,0.200,778.000,0.300,380.000,0.500,240.000,1.000,24.000,5.000,0
"03/07/08","02:15:38",11867.000,"cc",28320.830,6.00,6,0.100,9976.000,0.200,1005.000,0.300,525.000,0.500,328.000,1.000,33.000,5.000,0
"03/07/08","02:15:44",11271.000,"cc",28335.955,6.00,6,0.100,9700.000,0.200,867.000,0.300,436.000,0.500,244.000,1.000,24.000,5.000,0
"03/07/08","02:15:50",11050.000,"cc",28355.469,6.00,6,0.100,9487.000,0.200,861.000,0.300,421.000,0.500,250.000,1.000,31.000,5.000,0
"03/07/08","02:15:56",11053.000,"cc",28280.711,6.00,6,0.100,9620.000,0.200,768.000,0.300,431.000,0.500,214.000,1.000,20.000,5.000,0
"03/07/08","02:16:02",15280.000,"cc",28300.965,6.00,6,0.100,11801.000,0.200,1800.000,0.300,1057.000,0.500,539.000,1.000,83.000,5.000,0
"03/07/08","02:16:08",11372.000,"cc",28327.842,6.00,6,0.100,9875.000,0.200,844.000,0.300,401.000,0.500,220.000,1.000,32.000,5.000,0
"03/07/08","02:16:14",11604.000,"cc",28371.484,6.00,6,0.100,10083.000,0.200,849.000,0.300,435.000,0.500,217.000,1.000,20.000,5.000,0
"03/07/08","02:16:20",11178.000,"cc",28345.215,6.00,6,0.100,9694.000,0.200,822.000,0.300,431.000,0.500,209.000,1.000,22.000,5.000,0
"03/07/08","02:16:26",11098.000,"cc",28304.281,6.00,6,0.100,9583.000,0.200,827.000,0.300,443.000,0.500,210.000,1.000,35.000,5.000,0
"03/07/08","02:16:32",11778.000,"cc",28362.830,6.00,6,0.100,10015.000,0.200,959.000,0.300,491.000,0.500,279.000,1.000,34.000,5.000,0
"03/07/08","02:16:38",11084.000,"cc",28304.676,6.00,6,0.100,9618.000,0.200,771.000,0.300,435.000,0.500,230.000,1.000,30.000,5.000,0
"03/07/08","02:16:44",11245.000,"cc",28267.897,6.00,6,0.100,9652.000,0.200,875.000,0.300,442.000,0.500,244.000,1.000,32.000,5.000,0
"03/07/08","02:16:50",11110.000,"cc",28299.684,6.00,6,0.100,9691.000,0.200,778.000,0.300,415.000,0.500,207.000,1.000,19.000,5.000,0
"03/07/08","02:16:56",12118.000,"cc",28251.463,6.00,6,0.100,10235.000,0.200,1026.000,0.300,516.000,0.500,315.000,1.000,26.000,5.000,0
"03/07/08","02:17:02",11693.000,"cc",28205.824,6.00,6,0.100,10013.000,0.200,887.000,0.300,503.000,0.500,261.000,1.000,29.000,5.000,0